Flag for U.S.A. Weather past 2 weeks in Louisville, Kentucky, U.S.A.

Now
88 °F

Haze.


Feels Like: 91 °F
Forecast: 72 / 90 °F
Wind: 5 mph from North

Location: Standiford Field

Current Time: Sep 3, 2015 at 1:14:13 PM

Latest Report: Sep 3, 2015 at 11:56 AM


Visibility: 6 mi

Pressure: 30.01 "Hg

Humidity: 50%

Dew point: 67 °F

Location of LouisvilleLocation

Historic Weather in Louisville — Graph

°F

Louisville temperature yesterday

Maximum temperature yesterday: 92 °F (at 5:56 PM)
Minimum temperature yesterday: 71 °F (at 6:56 AM)
Average temperature yesterday: 82 °F

Past Weeks' High & Low Weather Summary

 TemperatureHumidityPressure
High92 °F (Sep 2, 5:56 PM)94% (Aug 20, 12:02 AM)30.17 "Hg (Aug 20, 12:02 AM)
Low59 °F (Aug 25, 6:56 AM)36% (Aug 24, 4:56 PM)29.76 "Hg (Aug 19, 3:56 PM)
Average75 °F63%30.04 "Hg
* Reported Aug 19 11:56 AM — Sep 3 11:56 AM, Louisville, Weather by CustomWeather, © 2015

Note: Actual official high and low records may vary slightly from our data, if they occured in-between our weather recording intervals... More about our weather records

Advertising

Louisville weather history for previous 24 hours

 ConditionsComfort  
Time TempWeatherWind HumidityBarometerVisibility
11:56 AM
Thu, Sep 3
88 °FHaze.5 mph50%30.01 "Hg6 mi
10:56 AM86 °FSunny.No wind53%30.02 "Hg5 mi
9:56 AM82 °FHaze.No wind63%30.02 "Hg4 mi
8:56 AM77 °FHaze.No wind77%30.03 "Hg4 mi
7:56 AM71 °FFog.3 mph90%30.02 "Hg4 mi
6:56 AM71 °FFog.3 mph90%30.01 "Hg5 mi
5:56 AM73 °FFog.No wind88%30.00 "Hg5 mi
4:56 AM75 °FClear.No wind79%29.99 "Hg6 mi
3:56 AM74 °FClear.5 mph85%29.99 "Hg6 mi
2:56 AM75 °FClear.No wind82%29.99 "Hg6 mi
1:56 AM77 °FClear.No wind77%30.00 "Hg6 mi
12:56 AM78 °FClear.No wind74%30.01 "Hg7 mi
11:56 PM
Wed, Sep 2
79 °FClear.3 mph74%30.01 "Hg6 mi
10:56 PM81 °FClear.3 mph65%30.01 "Hg7 mi
9:56 PM84 °FClear.3 mph57%30.00 "Hg7 mi
8:56 PM85 °FPassing clouds.5 mph53%29.99 "Hg8 mi
7:56 PM87 °FPassing clouds.7 mph50%29.98 "Hg7 mi
6:56 PM89 °FPassing clouds.7 mph45%29.98 "Hg7 mi
5:56 PM92 °FScattered clouds.7 mph41%29.99 "Hg8 mi
4:56 PM91 °FCloudy.No wind41%30.00 "Hg8 mi
3:56 PM90 °FScattered clouds.No wind43%30.03 "Hg7 mi
2:56 PM90 °FPartly sunny.3 mph43%30.04 "Hg7 mi
1:56 PM88 °FOvercast.5 mph46%30.07 "Hg8 mi
Weather by CustomWeather, © 2015

See weather overviewHow to use our weather pages